Location: Saratoga Springs
(43.0831°N, 73.7850°W)
Time: 12:24:31
(UTC-04:00)

Vanguard 3 - Pass Details

Date: 28 April 2024
Orbit: 509 x 3233 km, 33.3° (Epoch: 23 May)

Event Time Altitude Azimuth Distance (km) Brightness Sun altitude
Exits shadow 03:53:24 22° 241° (WSW) 4,904 10.5 -19.2°
Maximum altitude 04:05:41 55° 176° (S) 2,786 9.6 -17.6°
Drops below altitude 10° 04:16:44 10° 102° (ESE) 3,988 11.2 -16.0°
Sets 04:19:24 0° 98° (E) 4,670 11.7 -15.6°
